[[{"header":{"parameterUnit":"m.s-1","parameterCategory":2,"la1":30.2991,"la2":30.254,"lo1":-89.0895,"lo2":-89.0444,"dy":0.0017,"dx":0.0017,"nx":28,"ny":28,"refTime":"2024-04-09T09:00:00:Z","depth":"0","parameterNumber":2,"parameterNumberName":"U-component_of_CURRENTS"},"data":[0,0,0,0,0,0,0,0,0,0,0,0,0,0,0,0,0,0,0,0,0,0,0,0,0,0,0,0,0,0,0,0,0,0,0,0,0,0,0,0,0,0,0,0,0,0,0,0,0,0,0,0,0,0,0,0,0,0,-0.2835,-0.2835,0,-0.2828,-0.2827,-0.2827,-0.2768,-0.2767,-0.2766,-0.2766,-0.2621,-0.2618,-0.2615,0,0,0,0,0,0,0,0,0,0,0,0,0,-0.2706,-0.2708,-0.2835,-0.2835,-0.2836,-0.2828,-0.2827,-0.2827,-0.2768,-0.2767,-0.2766,-0.2765,-0.2622,-0.2618,-0.2615,0,0,0,0,0,0,0,0,0,0,0,0,0,-0.2731,-0.2709,-0.2835,-0.2811,-0.2809,-0.2828,-0.2827,-0.2827,-0.2768,-0.2767,-0.2766,-0.2765,-0.2623,-0.2619,-0.2614,-0.2611,0,0,-0.26,-0.2598,0,0,0,0,0,0,0,0,-0.2729,-0.2735,-0.2814,-0.2813,-0.2811,-0.2804,-0.2729,-0.275,-0.2769,-0.2777,-0.2766,-0.2764,-0.2675,-0.2666,-0.2659,-0.2604,-0.2598,-0.26,-0.2597,-0.2595,-0.2594,0,0,0,0,0,0,0,-0.2728,-0.2734,-0.2825,-0.2815,-0.2813,-0.277,-0.2772,-0.2733,-0.2725,-0.2776,-0.2773,-0.2784,-0.2672,-0.2664,-0.2655,-0.2596,-0.26,-0.2596,-0.2593,-0.2591,-0.2546,-0.2547,0,0,0,0,0,0,-0.2749,-0.2734,-0.2825,-0.2826,-0.2774,-0.2774,-0.2776,-0.2802,-0.2728,-0.2719,-0.2785,-0.2781,-0.2673,-0.2661,-0.265,-0.2636,-0.2595,-0.2591,-0.2588,-0.2544,-0.2546,-0.2548,0,0,0,0,0,0,-0.2747,-0.2758,-0.2826,-0.2783,-0.279,-0.2779,-0.2807,-0.2802,-0.2798,-0.2738,-0.2724,-0.2787,-0.2671,-0.2656,-0.2634,-0.263,-0.2588,-0.2584,-0.2542,-0.2545,-0.2547,-0.2612,0,0,0,0,0,0,-0.2743,-0.2758,-0.2776,-0.2786,-0.2793,-0.2855,-0.2809,-0.2803,-0.2809,-0.2804,-0.2735,-0.272,-0.2669,-0.2642,-0.263,-0.2623,-0.2581,-0.254,-0.2544,-0.2546,-0.2608,-0.2616,-0.2623,0,0,0,0,0,-0.2739,-0.2776,-0.2777,-0.2788,-0.2822,-0.2857,-0.2857,-0.2838,-0.2811,-0.2824,-0.278,-0.2722,-0.2651,-0.264,-0.2625,-0.2617,-0.2539,-0.2543,-0.2546,-0.2604,-0.2615,-0.2623,0,0,0,0,0,0,-0.2714,-0.2775,-0.2776,-0.2825,-0.2848,-0.285,-0.2863,-0.2849,-0.2826,-0.2814,-0.2743,-0.2727,-0.2704,-0.2666,-0.2655,-0.2618,-0.2585,-0.2586,-0.2635,-0.2644,-0.2651,-0.2649,-0.2577,0,0,0,0,0,-0.2726,-0.2777,-0.2812,-0.285,-0.2869,-0.2867,-0.2875,-0.2869,-0.2856,-0.2844,-0.2797,-0.2749,-0.2709,-0.2683,-0.2648,-0.2628,-0.259,-0.2616,-0.2624,-0.2631,-0.2623,-0.2577,-0.2579,-0.256,-0.256,-0.2559,0,0,-0.2725,-0.2766,-0.2791,-0.285,-0.2863,-0.2894,-0.2867,-0.2896,-0.29,-0.2831,-0.2815,-0.2776,-0.2715,-0.2693,-0.2678,-0.2656,-0.2624,-0.2635,-0.2641,-0.2629,-0.258,-0.2582,-0.2583,-0.2562,-0.2561,-0.2561,0,0,-0.2755,-0.2792,-0.2843,-0.2873,-0.2917,-0.292,-0.2935,-0.2948,-0.2933,-0.2931,-0.2874,-0.2841,-0.2791,-0.2739,-0.2706,-0.2739,-0.2672,-0.2732,-0.2755,-0.2711,-0.2712,-0.2711,-0.2691,-0.2689,-0.2729,-0.2729,-0.2729,0,-0.2747,-0.2818,-0.2858,-0.2909,-0.2929,-0.2936,-0.2972,-0.2968,-0.2964,-0.2947,-0.2937,-0.2857,-0.2806,-0.2753,-0.2765,-0.275,-0.2728,-0.2719,-0.2719,-0.2717,-0.2716,-0.2695,-0.2691,-0.2733,-0.2732,-0.2732,-0.2731,0,-0.2816,-0.2863,-0.2897,-0.2964,-0.2989,-0.3028,-0.3039,-0.3046,-0.303,-0.301,-0.2974,-0.2918,-0.2862,-0.2847,-0.281,-0.2774,-0.2764,-0.2737,-0.2689,-0.2721,-0.2698,-0.2693,-0.2738,-0.2736,-0.2735,-0.2734,0,0,-0.2836,-0.2924,-0.2938,-0.2961,-0.3021,-0.3045,-0.3064,-0.3073,-0.3066,-0.3048,-0.3022,-0.2961,-0.2926,-0.2888,-0.2837,-0.2797,-0.2775,-0.2768,-0.2764,-0.2739,-0.2699,-0.2717,-0.2713,-0.2747,-0.2746,-0.2746,-0.2696,0,-0.2876,-0.2951,-0.2995,-0.305,-0.3084,-0.3101,-0.3114,-0.3116,-0.3102,-0.3081,-0.3016,-0.2976,-0.2942,-0.2912,-0.287,-0.2793,-0.2761,-0.2792,-0.2679,-0.2676,-0.2679,-0.2706,-0.2694,-0.265,-0.269,-0.2689,-0.2688,0,-0.2945,-0.2978,-0.3027,-0.3078,-0.3096,-0.3117,-0.3131,-0.3148,-0.3123,-0.3112,-0.3068,-0.3021,-0.2953,-0.2925,-0.2814,-0.2838,-0.2777,-0.2724,-0.272,-0.2704,-0.2683,-0.262,-0.2638,-0.2638,-0.268,-0.268,-0.2681,0,-0.2938,-0.3013,-0.3037,-0.3057,-0.3107,-0.3115,-0.3137,-0.3138,-0.3141,-0.3118,-0.3113,-0.3038,-0.2987,-0.2908,-0.2811,-0.2808,-0.2697,-0.2674,-0.2636,-0.2637,-0.2586,-0.2585,-0.2575,-0.2599,-0.2599,-0.2599,-0.2599,0,-0.2979,-0.3008,-0.3024,-0.3042,-0.3053,-0.31,-0.3108,-0.3129,-0.3138,-0.3131,-0.3114,-0.3082,-0.2979,-0.2906,-0.2824,-0.2723,-0.2706,-0.2643,-0.2622,-0.2614,-0.2616,-0.258,-0.2581,-0.2597,-0.2597,-0.2598,-0.2598,0,-0.2987,-0.3006,-0.3024,-0.3047,-0.3051,-0.3052,-0.309,-0.3094,-0.313,-0.3122,-0.3116,-0.3093,-0.3004,-0.2916,-0.2778,-0.2735,-0.2613,-0.2605,-0.2623,-0.2605,-0.2584,-0.2589,-0.2513,-0.244,-0.256,-0.256,-0.256,0,-0.2997,-0.3006,-0.3001,-0.2966,-0.2971,-0.2979,-0.2985,-0.3061,-0.3071,-0.3116,-0.3102,-0.305,-0.2978,-0.2834,-0.2739,-0.2622,-0.2583,-0.2575,-0.2563,-0.2589,-0.2577,-0.2557,-0.2498,-0.2527,-0.2527,-0.2527,-0.2527,0,-0.2976,-0.2963,-0.2941,-0.2878,-0.2861,-0.287,-0.2892,-0.291,-0.2995,-0.299,-0.2968,-0.2926,-0.2869,-0.2753,-0.2671,-0.2595,-0.2559,-0.257,-0.2569,-0.2537,-0.2535,-0.2453,-0.2576,-0.2525,-0.2525,-0.2525,-0.2525,-0.2526,-0.29,-0.2865,-0.2796,-0.2725,-0.2716,-0.2699,-0.2608,-0.2656,-0.2639,-0.2531,-0.2748,-0.2604,-0.2758,-0.2627,-0.2578,-0.2554,-0.2505,-0.2524,-0.2524,-0.2499,-0.2442,-0.2589,-0.2534,-0.2534,-0.2534,-0.2534,-0.2534,0,-0.2752,-0.2708,-0.264,-0.2515,-0.2422,-0.2489,-0.247,-0.2313,-0.2172,-0.2173,-0.2123,-0.2308,-0.2387,-0.2478,-0.2599,-0.2544,-0.2453,-0.2505,-0.2466,-0.2398,-0.2505,-0.2521,-0.2493,-0.2493,-0.2493,-0.2493,-0.2493,-0.2493,-0.2646,-0.2527,-0.2487,-0.2225,-0.2136,-0.192,-0.1844,-0.1675,-0.1573,-0.1401,-0.1404,-0.1482,-0.1955,-0.2531,-0.2643,-0.2577,-0.247,-0.2451,-0.2385,-0.2492,-0.2493,-0.2495,-0.251,-0.248,-0.248,-0.2234,-0.2232,-0.2231]},{"header":{"parameterUnit":"m.s-1","parameterCategory":2,"la1":30.2991,"la2":30.254,"lo1":-89.0895,"lo2":-89.0444,"dy":0.0017,"dx":0.0017,"nx":28,"ny":28,"refTime":"2024-04-09T09:00:00:Z","depth":"0","parameterNumber":3,"parameterNumberName":"V-component_of_CURRENTS"},"data":[0,0,0,0,0,0,0,0,0,0,0,0,0,0,0,0,0,0,0,0,0,0,0,0,0,0,0,0,0,0,0,0,0,0,0,0,0,0,0,0,0,0,0,0,0,0,0,0,0,0,0,0,0,0,0,0,0,0,0.0075,0.0077,0,0.0219,0.0221,0.0223,0.0287,0.0286,0.0286,0.0286,0.0438,0.0442,0.0447,0,0,0,0,0,0,0,0,0,0,0,0,0,-0.0022,-0.0021,0.0075,0.0077,0.0079,0.0219,0.0221,0.0223,0.0287,0.0286,0.0286,0.0286,0.0437,0.0442,0.0447,0,0,0,0,0,0,0,0,0,0,0,0,0,0.0062,-0.0021,0.0075,0.0126,0.0132,0.0219,0.0221,0.0224,0.0287,0.0286,0.0286,0.0285,0.0435,0.0441,0.0448,0.0497,0,0,0.0468,0.0471,0,0,0,0,0,0,0,0,0.0057,0.0065,0.0117,0.0123,0.013,0.0233,0.0243,0.0315,0.0287,0.0229,0.0286,0.0285,0.037,0.0382,0.0412,0.0504,0.0511,0.0468,0.0472,0.0475,0.0477,0,0,0,0,0,0,0,0.0051,0.006,0.0133,0.0119,0.0127,0.0184,0.0194,0.0257,0.0302,0.0234,0.0239,0.0253,0.0374,0.0405,0.0416,0.0513,0.0468,0.0474,0.0478,0.0481,0.0712,0.0714,0,0,0,0,0,0,0.0025,0.0054,0.0129,0.0138,0.009,0.0186,0.0197,0.0202,0.0301,0.0315,0.0253,0.0256,0.0394,0.0408,0.0421,0.051,0.0475,0.0481,0.0485,0.071,0.0712,0.0715,0,0,0,0,0,0,0.0022,0.0029,0.0123,0.0099,0.0115,0.0187,0.0192,0.0205,0.0234,0.0315,0.033,0.0268,0.0395,0.0412,0.0491,0.0515,0.0484,0.049,0.0707,0.071,0.0714,0.0671,0,0,0,0,0,0,0.0018,0.0027,0.002,0.0096,0.0115,0.0171,0.0192,0.0208,0.0243,0.0247,0.0333,0.0347,0.0396,0.0481,0.0497,0.0523,0.0495,0.0704,0.0708,0.0712,0.0669,0.0672,0.0675,0,0,0,0,0,0.0014,0.0001,0.0018,0.0028,0.0102,0.0171,0.0186,0.0237,0.0244,0.0261,0.0327,0.0344,0.0519,0.0488,0.0506,0.0535,0.0702,0.0707,0.0712,0.0668,0.0672,0.0675,0,0,0,0,0,0,-0.0048,0.0009,0.0029,0.0033,0.0096,0.0181,0.0196,0.0233,0.0299,0.0299,0.037,0.039,0.047,0.0515,0.0478,0.0619,0.0615,0.0624,0.0575,0.0579,0.0582,0.0552,0.0501,0,0,0,0,0,-0.0065,-0.0062,0.0015,0.0016,0.0044,0.0119,0.0151,0.019,0.0259,0.0286,0.0352,0.0429,0.0508,0.0549,0.0622,0.0694,0.0731,0.073,0.0732,0.0734,0.0726,0.0801,0.0808,0.0731,0.0731,0.0731,0,0,-0.0093,-0.0059,-0.006,0.0004,0.0052,0.0098,0.0137,0.0182,0.0227,0.0293,0.0366,0.0437,0.053,0.0616,0.0656,0.0653,0.078,0.074,0.074,0.0732,0.0806,0.0813,0.082,0.0735,0.0734,0.0733,0,0,-0.0137,-0.0112,-0.0116,-0.0061,0.0011,0.007,0.0079,0.0171,0.0216,0.0299,0.0363,0.0447,0.056,0.064,0.0692,0.0756,0.0789,0.0782,0.0772,0.0845,0.085,0.0856,0.0917,0.0929,0.0785,0.0785,0.0785,0,-0.0174,-0.0163,-0.0104,-0.0076,-0.0038,0.0052,0.0077,0.0148,0.0256,0.03,0.0313,0.0504,0.0574,0.0693,0.0717,0.0759,0.0797,0.0743,0.0843,0.085,0.0856,0.0918,0.0931,0.0783,0.0783,0.0784,0.0784,0,-0.0205,-0.0187,-0.0181,-0.0118,-0.0063,-0.003,0.0078,0.014,0.0202,0.0278,0.0398,0.0508,0.0617,0.0664,0.0708,0.0804,0.0816,0.0831,0.082,0.086,0.0924,0.0938,0.0781,0.0782,0.0782,0.0782,0,0,-0.0306,-0.0225,-0.0222,-0.0199,-0.0084,-0.0047,0.0041,0.0145,0.02,0.0315,0.0392,0.0541,0.0595,0.0659,0.0739,0.0807,0.0889,0.0828,0.0833,0.0863,0.1041,0.1156,0.1182,0.0912,0.0914,0.0916,0.1069,0,-0.0348,-0.0342,-0.0263,-0.0227,-0.021,-0.0084,-0.001,0.0101,0.0208,0.0311,0.0443,0.0547,0.0598,0.0651,0.073,0.0861,0.0923,0.0845,0.1022,0.1027,0.1102,0.1202,0.134,0.1498,0.1083,0.1085,0.1087,0,-0.039,-0.0386,-0.0381,-0.0291,-0.0268,-0.022,-0.0091,-0.0008,0.0171,0.0255,0.0386,0.0498,0.065,0.0665,0.0889,0.0835,0.0923,0.101,0.1018,0.1146,0.1169,0.1395,0.1539,0.1758,0.1109,0.1107,0.1105,0,-0.0507,-0.045,-0.0462,-0.0431,-0.0319,-0.0282,-0.0211,-0.0043,0.0036,0.0217,0.0298,0.0487,0.0598,0.0737,0.0946,0.0911,0.1179,0.1156,0.1338,0.1346,0.1512,0.1532,0.1868,0.1278,0.1278,0.1277,0.1277,0,-0.0572,-0.0576,-0.0526,-0.0531,-0.0527,-0.0398,-0.0338,-0.023,-0.0062,0.0059,0.0244,0.0396,0.0617,0.0817,0.0954,0.1228,0.1194,0.1363,0.141,0.1505,0.1522,0.1756,0.1807,0.1283,0.1282,0.1281,0.128,0,-0.0675,-0.0644,-0.066,-0.0598,-0.0583,-0.0582,-0.045,-0.0388,-0.0211,-0.0044,0.0015,0.0331,0.063,0.0861,0.1134,0.1269,0.1643,0.157,0.167,0.1727,0.2092,0.2132,0.2401,0.2556,0.18,0.1804,0.1808,0,-0.0724,-0.0752,-0.0751,-0.0778,-0.0754,-0.0725,-0.0687,-0.0507,-0.0401,-0.0047,0.0038,0.0373,0.0691,0.1155,0.1448,0.1748,0.1837,0.2008,0.1972,0.2175,0.2254,0.2199,0.2305,0.2172,0.2178,0.2183,0.2187,0,-0.0823,-0.0831,-0.0851,-0.0926,-0.0925,-0.0888,-0.0799,-0.0724,-0.0444,-0.0234,0.0147,0.0435,0.0964,0.1477,0.1862,0.2006,0.2207,0.2118,0.2323,0.2587,0.2557,0.2708,0.1984,0.2232,0.2227,0.2224,0.2222,0.222,-0.0899,-0.0951,-0.0995,-0.1049,-0.1062,-0.1006,-0.091,-0.0726,-0.0498,-0.0028,0.021,0.0784,0.1482,0.2103,0.2287,0.2733,0.256,0.2852,0.2886,0.2811,0.2979,0.2352,0.2651,0.2649,0.2648,0.2646,0.2645,0,-0.0977,-0.103,-0.1107,-0.114,-0.1151,-0.1114,-0.0938,-0.072,-0.0375,0.0096,0.054,0.1438,0.2144,0.2685,0.3312,0.3524,0.3484,0.3589,0.3572,0.3646,0.3128,0.3168,0.3603,0.3603,0.3603,0.3602,0.3602,0.3602,-0.1019,-0.1113,-0.1148,-0.12,-0.1194,-0.106,-0.0914,-0.0534,-0.0128,0.0654,0.1257,0.1698,0.2416,0.353,0.4144,0.4164,0.4324,0.4247,0.432,0.3994,0.3926,0.3862,0.392,0.4504,0.4505,0.4851,0.4855,0.4858]}],[{"header":{"parameterUnit":"m.s-1","parameterCategory":2,"la1":30.2991,"la2":30.254,"lo1":-89.0895,"lo2":-89.0444,"dy":0.0017,"dx":0.0017,"nx":28,"ny":28,"refTime":"2024-04-09T09:00:00:Z","depth":"2","parameterNumber":2,"parameterNumberName":"U-component_of_CURRENTS"},"data":[0,0,0,0,0,0,0,0,0,0,0,0,0,0,0,0,0,0,0,0,0,0,0,0,0,0,0,0,0,0,0,0,0,0,0,0,0,0,0,0,0,0,0,0,0,0,0,0,0,0,0,0,0,0,0,0,0,0,-0.2799,-0.2799,0,-0.2792,-0.2791,-0.2791,-0.2732,-0.2732,-0.2731,-0.273,-0.2586,-0.2583,-0.258,0,0,0,0,0,0,0,0,0,0,0,0,0,-0.267,-0.2673,-0.2799,-0.2799,-0.28,-0.2792,-0.2791,-0.2791,-0.2733,-0.2732,-0.2731,-0.273,-0.2587,-0.2583,-0.258,0,0,0,0,0,0,0,0,0,0,0,0,0,-0.2695,-0.2674,-0.2799,-0.2775,-0.2773,-0.2792,-0.2791,-0.279,-0.2733,-0.2732,-0.273,-0.2729,-0.2588,-0.2584,-0.2579,-0.2575,0,0,-0.2565,-0.2563,0,0,0,0,0,0,0,0,-0.2694,-0.2699,-0.2778,-0.2777,-0.2775,-0.2768,-0.2694,-0.2714,-0.2733,-0.2741,-0.273,-0.2729,-0.2639,-0.2631,-0.2624,-0.2569,-0.2562,-0.2565,-0.2562,-0.256,-0.2559,0,0,0,0,0,0,0,-0.2692,-0.2698,-0.2789,-0.2779,-0.2777,-0.2734,-0.2736,-0.2697,-0.2689,-0.274,-0.2738,-0.2748,-0.2636,-0.2629,-0.262,-0.256,-0.2565,-0.2561,-0.2558,-0.2556,-0.2511,-0.2513,0,0,0,0,0,0,-0.2714,-0.2698,-0.2789,-0.279,-0.2738,-0.2738,-0.274,-0.2766,-0.2693,-0.2683,-0.2749,-0.2746,-0.2637,-0.2626,-0.2615,-0.2602,-0.256,-0.2556,-0.2553,-0.251,-0.2511,-0.2513,0,0,0,0,0,0,-0.2711,-0.2723,-0.279,-0.2747,-0.2754,-0.2743,-0.2771,-0.2766,-0.2762,-0.2702,-0.2689,-0.2751,-0.2636,-0.2621,-0.26,-0.2595,-0.2554,-0.2549,-0.2508,-0.251,-0.2512,-0.2578,0,0,0,0,0,0,-0.2708,-0.2722,-0.2741,-0.275,-0.2757,-0.2819,-0.2773,-0.2767,-0.2774,-0.2769,-0.27,-0.2685,-0.2634,-0.2607,-0.2595,-0.2588,-0.2546,-0.2506,-0.2509,-0.2512,-0.2573,-0.2582,-0.2589,0,0,0,0,0,-0.2703,-0.274,-0.2742,-0.2753,-0.2787,-0.2821,-0.2821,-0.2802,-0.2776,-0.2789,-0.2745,-0.2687,-0.2617,-0.2605,-0.259,-0.2582,-0.2504,-0.2508,-0.2511,-0.257,-0.258,-0.2589,0,0,0,0,0,0,-0.2679,-0.2739,-0.274,-0.2789,-0.2813,-0.2814,-0.2828,-0.2814,-0.279,-0.2779,-0.2708,-0.2692,-0.267,-0.2632,-0.262,-0.2583,-0.2551,-0.2551,-0.26,-0.2609,-0.2617,-0.2614,-0.2542,0,0,0,0,0,-0.2691,-0.2743,-0.2777,-0.2815,-0.2834,-0.2831,-0.284,-0.2834,-0.2821,-0.2809,-0.2763,-0.2714,-0.2675,-0.2648,-0.2613,-0.2593,-0.2556,-0.2582,-0.2589,-0.2596,-0.2588,-0.2542,-0.2544,-0.2525,-0.2525,-0.2525,0,0,-0.269,-0.2731,-0.2757,-0.2815,-0.2828,-0.2859,-0.2832,-0.2862,-0.2865,-0.2796,-0.278,-0.2742,-0.268,-0.2658,-0.2644,-0.2621,-0.259,-0.2601,-0.2606,-0.2594,-0.2546,-0.2547,-0.2548,-0.2527,-0.2527,-0.2526,0,0,-0.2721,-0.2757,-0.2809,-0.2839,-0.2883,-0.2886,-0.2901,-0.2914,-0.2899,-0.2897,-0.284,-0.2807,-0.2757,-0.2705,-0.2671,-0.2705,-0.2638,-0.2698,-0.272,-0.2677,-0.2677,-0.2677,-0.2658,-0.2655,-0.2694,-0.2695,-0.2695,0,-0.2713,-0.2784,-0.2824,-0.2875,-0.2895,-0.2902,-0.2938,-0.2934,-0.293,-0.2913,-0.2904,-0.2823,-0.2772,-0.2718,-0.2731,-0.2715,-0.2693,-0.2685,-0.2684,-0.2683,-0.2682,-0.2661,-0.2658,-0.2698,-0.2698,-0.2697,-0.2697,0,-0.2781,-0.2829,-0.2863,-0.293,-0.2955,-0.2994,-0.3005,-0.3012,-0.2996,-0.2975,-0.294,-0.2884,-0.2828,-0.2813,-0.2776,-0.2739,-0.273,-0.2703,-0.2655,-0.2687,-0.2665,-0.266,-0.2703,-0.2702,-0.2701,-0.27,0,0,-0.2801,-0.289,-0.2904,-0.2927,-0.2987,-0.3011,-0.303,-0.3038,-0.3031,-0.3013,-0.2987,-0.2926,-0.2892,-0.2854,-0.2803,-0.2763,-0.2742,-0.2734,-0.273,-0.2705,-0.2666,-0.2683,-0.2679,-0.2714,-0.2713,-0.2712,-0.2663,0,-0.284,-0.2916,-0.296,-0.3015,-0.3049,-0.3066,-0.3079,-0.308,-0.3067,-0.3046,-0.2981,-0.2941,-0.2907,-0.2878,-0.2836,-0.2759,-0.2727,-0.2758,-0.2646,-0.2643,-0.2645,-0.2673,-0.243,-0.2368,-0.2658,-0.2657,-0.2656,0,-0.2908,-0.2942,-0.2991,-0.3042,-0.3061,-0.3082,-0.3096,-0.3112,-0.3087,-0.3076,-0.3033,-0.2986,-0.2918,-0.2891,-0.278,-0.2805,-0.2744,-0.2691,-0.2687,-0.267,-0.2649,-0.2378,-0.2347,-0.2647,-0.2647,-0.2648,-0.2649,0,-0.2901,-0.2976,-0.3,-0.3021,-0.3071,-0.308,-0.3101,-0.3102,-0.3105,-0.3082,-0.3078,-0.3003,-0.2953,-0.2874,-0.2777,-0.2775,-0.2664,-0.2642,-0.2603,-0.2604,-0.2357,-0.2339,-0.2567,-0.2567,-0.2567,-0.2567,-0.2567,0,-0.2941,-0.2971,-0.2987,-0.3006,-0.3016,-0.3064,-0.3073,-0.3093,-0.3102,-0.3095,-0.3078,-0.3047,-0.2945,-0.2872,-0.279,-0.269,-0.2673,-0.261,-0.2589,-0.2381,-0.2367,-0.2568,-0.2569,-0.2565,-0.2565,-0.2566,-0.2566,0,-0.2951,-0.297,-0.2987,-0.301,-0.3014,-0.3015,-0.3055,-0.3058,-0.3095,-0.3087,-0.3081,-0.3058,-0.297,-0.2882,-0.2745,-0.2702,-0.2606,-0.2573,-0.2361,-0.2317,-0.2575,-0.258,-0.2527,-0.2527,-0.2527,-0.2527,-0.2527,0,-0.2962,-0.2971,-0.2964,-0.293,-0.2935,-0.2943,-0.295,-0.3026,-0.3037,-0.3081,-0.3067,-0.3015,-0.293,-0.2786,-0.2634,-0.2501,-0.2582,-0.2303,-0.226,-0.2584,-0.2568,-0.2573,-0.2578,-0.1953,-0.1949,-0.1945,-0.1942,0,-0.2944,-0.293,-0.2906,-0.2842,-0.2826,-0.2835,-0.2858,-0.2875,-0.296,-0.2941,-0.2919,-0.2863,-0.2755,-0.2492,-0.2385,-0.229,-0.2311,-0.223,-0.256,-0.2042,-0.205,-0.2034,-0.2055,-0.1908,-0.1912,-0.1914,-0.1916,-0.1917,-0.287,-0.2834,-0.2762,-0.2691,-0.2682,-0.2665,-0.2575,-0.2577,-0.2539,-0.239,-0.2614,-0.2377,-0.2431,-0.2036,-0.2002,-0.1953,-0.2093,-0.2025,-0.2032,-0.2044,-0.2027,-0.2039,-0.1892,-0.1895,-0.1898,-0.19,-0.1903,0,-0.2647,-0.2679,-0.2609,-0.2483,-0.2341,-0.2457,-0.2438,-0.2234,-0.2017,-0.1995,-0.1867,-0.1683,-0.1575,-0.163,-0.1479,-0.1571,-0.1501,-0.1571,-0.1443,-0.1477,-0.1507,-0.1459,-0.1175,-0.1173,-0.1172,-0.117,0,0,-0.2522,-0.2373,-0.233,-0.2076,-0.2047,-0.1788,-0.1711,-0.1488,-0.1345,-0.1077,-0.0946,-0.1073,-0.1358,-0.1108,-0.1216,-0.1142,-0.1256,-0.1094,-0.1659,-0.1519,-0.1545,-0.1749,-0.1714,0,0,0,0,0]},{"header":{"parameterUnit":"m.s-1","parameterCategory":2,"la1":30.2991,"la2":30.254,"lo1":-89.0895,"lo2":-89.0444,"dy":0.0017,"dx":0.0017,"nx":28,"ny":28,"refTime":"2024-04-09T09:00:00:Z","depth":"2","parameterNumber":3,"parameterNumberName":"V-component_of_CURRENTS"},"data":[0,0,0,0,0,0,0,0,0,0,0,0,0,0,0,0,0,0,0,0,0,0,0,0,0,0,0,0,0,0,0,0,0,0,0,0,0,0,0,0,0,0,0,0,0,0,0,0,0,0,0,0,0,0,0,0,0,0,0.0042,0.0044,0,0.0185,0.0187,0.0189,0.0253,0.0253,0.0253,0.0252,0.0404,0.0409,0.0413,0,0,0,0,0,0,0,0,0,0,0,0,0,-0.0054,-0.0053,0.0042,0.0044,0.0046,0.0185,0.0187,0.0189,0.0253,0.0253,0.0253,0.0252,0.0403,0.0408,0.0413,0,0,0,0,0,0,0,0,0,0,0,0,0,0.0029,-0.0053,0.0042,0.0093,0.0099,0.0185,0.0187,0.019,0.0253,0.0253,0.0252,0.0252,0.0401,0.0408,0.0414,0.0462,0,0,0.0434,0.0436,0,0,0,0,0,0,0,0,0.0024,0.0033,0.0084,0.009,0.0097,0.02,0.0209,0.0281,0.0253,0.0196,0.0252,0.0252,0.0336,0.0348,0.0378,0.0469,0.0476,0.0434,0.0438,0.0441,0.0443,0,0,0,0,0,0,0,0.0018,0.0028,0.01,0.0086,0.0094,0.0151,0.0161,0.0224,0.0268,0.0201,0.0206,0.022,0.034,0.0371,0.0382,0.0478,0.0434,0.044,0.0444,0.0446,0.0675,0.0677,0,0,0,0,0,0,-0.0008,0.0021,0.0095,0.0104,0.0057,0.0152,0.0164,0.0168,0.0267,0.0282,0.022,0.0222,0.036,0.0374,0.0387,0.0475,0.0441,0.0447,0.0451,0.0672,0.0675,0.0677,0,0,0,0,0,0,-0.0011,-0.0003,0.009,0.0066,0.0081,0.0153,0.0158,0.0171,0.0201,0.0281,0.0296,0.0235,0.0361,0.0378,0.0456,0.048,0.045,0.0456,0.067,0.0673,0.0676,0.0634,0,0,0,0,0,0,-0.0014,-0.0005,-0.0012,0.0063,0.0082,0.0137,0.0159,0.0174,0.0209,0.0214,0.03,0.0313,0.0362,0.0446,0.0462,0.0488,0.0461,0.0667,0.0671,0.0675,0.0632,0.0635,0.0638,0,0,0,0,0,-0.0018,-0.0031,-0.0014,-0.0005,0.0069,0.0137,0.0152,0.0204,0.021,0.0227,0.0293,0.0311,0.0484,0.0453,0.0471,0.05,0.0665,0.067,0.0675,0.0631,0.0635,0.0638,0,0,0,0,0,0,-0.008,-0.0023,-0.0003,0.0,0.0063,0.0147,0.0162,0.0199,0.0265,0.0265,0.0336,0.0356,0.0435,0.0479,0.0443,0.0582,0.0579,0.0588,0.054,0.0544,0.0546,0.0516,0.0466,0,0,0,0,0,-0.0097,-0.0094,-0.0018,-0.0016,0.0011,0.0086,0.0117,0.0157,0.0225,0.0252,0.0318,0.0394,0.0473,0.0513,0.0585,0.0657,0.0693,0.0692,0.0694,0.0696,0.0688,0.0763,0.077,0.0694,0.0694,0.0694,0,0,-0.0125,-0.0091,-0.0092,-0.0029,0.0019,0.0064,0.0104,0.0148,0.0193,0.0259,0.0332,0.0402,0.0494,0.0579,0.0618,0.0616,0.0742,0.0702,0.0702,0.0694,0.0768,0.0775,0.0782,0.0697,0.0696,0.0696,0,0,-0.0169,-0.0144,-0.0148,-0.0093,-0.0022,0.0036,0.0046,0.0137,0.0182,0.0264,0.0328,0.0411,0.0524,0.0602,0.0654,0.0717,0.075,0.0743,0.0733,0.0805,0.0811,0.0817,0.0878,0.0889,0.0746,0.0746,0.0746,0,-0.0206,-0.0196,-0.0136,-0.0109,-0.0071,0.0019,0.0043,0.0114,0.0221,0.0265,0.0278,0.0468,0.0537,0.0655,0.0679,0.072,0.0759,0.0705,0.0804,0.0811,0.0817,0.0879,0.0891,0.0744,0.0744,0.0745,0.0745,0,-0.0237,-0.022,-0.0214,-0.0152,-0.0097,-0.0064,0.0043,0.0105,0.0167,0.0243,0.0362,0.0471,0.0579,0.0626,0.0669,0.0765,0.0777,0.0791,0.0781,0.0821,0.0885,0.0899,0.0742,0.0743,0.0743,0.0744,0,0,-0.0339,-0.0259,-0.0255,-0.0233,-0.0119,-0.0081,0.0005,0.0109,0.0164,0.0278,0.0355,0.0502,0.0557,0.062,0.07,0.0768,0.0849,0.0789,0.0794,0.0824,0.1001,0.1113,0.114,0.0872,0.0874,0.0876,0.1029,0,-0.0382,-0.0376,-0.0297,-0.0261,-0.0245,-0.0119,-0.0046,0.0064,0.0171,0.0274,0.0405,0.0508,0.056,0.0612,0.0691,0.0822,0.0884,0.0806,0.0982,0.0987,0.106,0.1159,0.0853,0.0973,0.1043,0.1045,0.1047,0,-0.0425,-0.042,-0.0415,-0.0325,-0.0303,-0.0255,-0.0127,-0.0045,0.0134,0.0217,0.0348,0.046,0.0611,0.0626,0.085,0.0796,0.0884,0.097,0.0978,0.1104,0.1127,0.0949,0.0996,0.107,0.1069,0.1067,0.1065,0,-0.0541,-0.0484,-0.0496,-0.0466,-0.0354,-0.0317,-0.0247,-0.008,-0.0001,0.0179,0.026,0.0448,0.0559,0.0698,0.0906,0.0872,0.1138,0.1115,0.1295,0.1303,0.1091,0.1078,0.1238,0.1238,0.1237,0.1237,0.1236,0,-0.0606,-0.061,-0.0561,-0.0565,-0.0561,-0.0433,-0.0373,-0.0266,-0.0098,0.0022,0.0207,0.0357,0.0579,0.0778,0.0914,0.1186,0.1153,0.132,0.1367,0.1074,0.1059,0.1175,0.1165,0.1243,0.1241,0.124,0.1239,0,-0.0709,-0.0678,-0.0693,-0.0632,-0.0617,-0.0616,-0.0484,-0.0423,-0.0246,-0.008,-0.0022,0.0292,0.059,0.082,0.1092,0.1226,0.1444,0.1525,0.1181,0.1189,0.1543,0.153,0.1741,0.1747,0.1752,0.1756,0.1759,0,-0.0757,-0.0784,-0.0785,-0.0811,-0.0787,-0.0758,-0.072,-0.0541,-0.0435,-0.0085,-0.0,0.0333,0.0624,0.1085,0.1251,0.1513,0.1595,0.1496,0.14,0.158,0.1603,0.1582,0.1563,0.1078,0.1075,0.1073,0.1072,0,-0.0854,-0.0862,-0.0883,-0.0958,-0.0957,-0.092,-0.0832,-0.0758,-0.0479,-0.0295,0.0082,0.0345,0.0754,0.0974,0.1306,0.1415,0.1436,0.1476,0.1735,0.1043,0.098,0.0995,0.0992,0.1053,0.1055,0.1057,0.1058,0.1058,-0.0928,-0.0981,-0.1026,-0.108,-0.1093,-0.1038,-0.0942,-0.0873,-0.0684,-0.0418,-0.0054,0.0244,0.0575,0.0898,0.116,0.1332,0.1397,0.1414,0.1407,0.1405,0.1347,0.1301,0.1421,0.1425,0.1428,0.1431,0.1433,0,-0.1033,-0.1059,-0.1136,-0.117,-0.121,-0.1145,-0.097,-0.0923,-0.0758,-0.0608,-0.0343,-0.002,0.0257,0.0644,0.0825,0.1111,0.0963,0.1209,0.0915,0.0929,0.0942,0.0851,0.0799,0.08,0.08,0.0801,0,0,-0.1082,-0.1185,-0.122,-0.1284,-0.1259,-0.1233,-0.1091,-0.1047,-0.0962,-0.0845,-0.0682,-0.0472,0.0135,0.0183,0.0477,0.0631,0.0703,0.0617,0.106,0.0674,0.0686,0.0967,0.0835,0,0,0,0,0]}],[{"header":{"parameterUnit":"m.s-1","parameterCategory":2,"la1":30.2991,"la2":30.254,"lo1":-89.0895,"lo2":-89.0444,"dy":0.0017,"dx":0.0017,"nx":28,"ny":28,"refTime":"2024-04-09T09:00:00:Z","depth":"4","parameterNumber":2,"parameterNumberName":"U-component_of_CURRENTS"},"data":[0,0,0,0,0,0,0,0,0,0,0,0,0,0,0,0,0,0,0,0,0,0,0,0,0,0,0,0,0,0,0,0,0,0,0,0,0,0,0,0,0,0,0,0,0,0,0,0,0,0,0,0,0,0,0,0,0,0,-0.1346,-0.1347,0,-0.1408,-0.1408,-0.1409,-0.1444,-0.1445,-0.1445,-0.1446,-0.1432,-0.1431,-0.1431,0,0,0,0,0,0,0,0,0,0,0,0,0,-0.1222,-0.1224,-0.1346,-0.1347,-0.1349,-0.1408,-0.1408,-0.1409,-0.1444,-0.1445,-0.1445,-0.1446,-0.1432,-0.1431,-0.1431,0,0,0,0,0,0,0,0,0,0,0,0,0,-0.1276,-0.1225,-0.1346,-0.1376,-0.1379,-0.1408,-0.1409,-0.1409,-0.1444,-0.1445,-0.1445,-0.1446,-0.1433,-0.1432,-0.143,-0.1411,0,0,-0.1427,-0.1426,0,0,0,0,0,0,0,0,-0.1273,-0.1281,-0.137,-0.1374,-0.1378,-0.1422,-0.136,-0.1407,-0.1444,-0.1416,-0.1446,-0.1446,-0.1423,-0.1423,-0.143,-0.141,-0.1409,-0.1427,-0.1426,-0.1426,-0.1425,0,0,0,0,0,0,0,-0.127,-0.1278,-0.1368,-0.1371,-0.1376,-0.1373,-0.1382,-0.1369,-0.1411,-0.1419,-0.1422,-0.1434,-0.1424,-0.1431,-0.1429,-0.1409,-0.1427,-0.1426,-0.1425,-0.1425,-0.1437,-0.1438,0,0,0,0,0,0,-0.127,-0.1275,-0.1366,-0.137,-0.133,-0.1375,-0.1385,-0.1404,-0.1413,-0.1417,-0.1433,-0.1435,-0.1432,-0.1431,-0.1429,-0.1479,-0.1426,-0.1425,-0.1424,-0.1436,-0.1437,-0.1439,0,0,0,0,0,0,-0.1267,-0.1278,-0.1363,-0.1325,-0.1337,-0.1378,-0.1399,-0.1405,-0.1437,-0.1426,-0.1428,-0.1462,-0.1433,-0.1431,-0.1448,-0.1475,-0.1424,-0.1423,-0.1435,-0.1437,-0.1438,-0.1531,0,0,0,0,0,0,-0.1263,-0.1277,-0.1298,-0.1326,-0.1339,-0.1399,-0.1399,-0.1406,-0.1444,-0.1448,-0.145,-0.1449,-0.1433,-0.145,-0.1447,-0.1473,-0.1422,-0.1434,-0.1436,-0.1438,-0.1527,-0.1535,-0.1543,0,0,0,0,0,-0.1259,-0.1282,-0.1298,-0.131,-0.1365,-0.14,-0.1406,-0.1434,-0.1445,-0.1464,-0.1472,-0.145,-0.1459,-0.145,-0.1446,-0.1473,-0.1433,-0.1435,-0.1437,-0.1523,-0.1534,-0.1543,0,0,0,0,0,0,-0.1236,-0.129,-0.1307,-0.1346,-0.138,-0.1408,-0.1432,-0.1448,-0.1471,-0.148,-0.1464,-0.1463,-0.1486,-0.1465,-0.1455,-0.148,-0.1441,-0.1443,-0.1508,-0.1517,-0.1525,-0.1535,-0.1421,0,0,0,0,0,-0.1242,-0.1278,-0.1321,-0.1353,-0.1375,-0.1408,-0.1429,-0.1451,-0.1472,-0.1485,-0.149,-0.149,-0.1488,-0.1493,-0.1485,-0.1501,-0.1474,-0.1514,-0.1522,-0.1529,-0.1534,-0.1519,-0.1526,-0.1446,-0.1446,-0.1446,0,0,-0.1238,-0.1276,-0.1294,-0.1351,-0.1381,-0.142,-0.1422,-0.1467,-0.1502,-0.1476,-0.1526,-0.1519,-0.1497,-0.152,-0.1527,-0.151,-0.154,-0.1532,-0.1539,-0.1539,-0.1522,-0.153,-0.1537,-0.1448,-0.1447,-0.1447,0,0,-0.1243,-0.1289,-0.1319,-0.1358,-0.1417,-0.1442,-0.1461,-0.1509,-0.1536,-0.1578,-0.1567,-0.1581,-0.1586,-0.1581,-0.1574,-0.162,-0.1582,-0.1618,-0.1673,-0.1659,-0.1666,-0.1671,-0.1658,-0.1661,-0.1626,-0.1626,-0.1626,0,-0.1234,-0.129,-0.133,-0.1375,-0.1417,-0.1456,-0.1501,-0.1531,-0.1579,-0.1605,-0.1607,-0.1627,-0.1614,-0.1631,-0.1655,-0.1639,-0.1626,-0.164,-0.1671,-0.1675,-0.1679,-0.1664,-0.1667,-0.1631,-0.163,-0.163,-0.163,0,-0.1254,-0.1318,-0.1343,-0.1418,-0.1463,-0.1511,-0.1566,-0.1613,-0.1652,-0.1679,-0.172,-0.171,-0.1721,-0.1721,-0.1706,-0.173,-0.171,-0.1681,-0.1648,-0.1693,-0.1674,-0.1675,-0.1638,-0.1636,-0.1635,-0.1634,0,0,-0.1166,-0.1329,-0.1335,-0.1403,-0.1499,-0.1537,-0.1608,-0.1676,-0.1725,-0.1764,-0.1812,-0.1821,-0.1823,-0.1815,-0.1796,-0.1792,-0.1815,-0.1762,-0.1759,-0.1754,-0.1791,-0.1714,-0.1707,-0.1796,-0.1796,-0.1796,-0.1771,0,-0.1167,-0.1278,-0.1354,-0.1457,-0.1522,-0.1604,-0.1668,-0.1737,-0.1787,-0.1841,-0.1844,-0.1875,-0.1855,-0.1868,-0.1864,-0.1824,-0.182,-0.1824,-0.1743,-0.1741,-0.1671,-0.1707,-0.1798,-0.1771,-0.1771,-0.1771,-0.1772,0,-0.1125,-0.1232,-0.1343,-0.1515,-0.1549,-0.1615,-0.1735,-0.1797,-0.1875,-0.1915,-0.1949,-0.1951,-0.1964,-0.1931,-0.1899,-0.1906,-0.1863,-0.1826,-0.1824,-0.1718,-0.1665,-0.1712,-0.1773,-0.1773,-0.1772,-0.1772,-0.1772,0,-0.1017,-0.1201,-0.1305,-0.1362,-0.1556,-0.1625,-0.1715,-0.1816,-0.1876,-0.1957,-0.1996,-0.2012,-0.2016,-0.1978,-0.192,-0.1916,-0.1866,-0.1841,-0.1729,-0.1723,-0.1759,-0.1753,-0.1811,-0.1811,-0.1811,-0.1811,-0.1811,0,-0.0956,-0.1034,-0.1281,-0.1334,-0.1466,-0.1604,-0.171,-0.1797,-0.1907,-0.1963,-0.2024,-0.204,-0.2029,-0.2,-0.1942,-0.184,-0.1882,-0.1744,-0.1712,-0.18,-0.1799,-0.176,-0.1755,-0.181,-0.181,-0.1811,-0.1811,0,-0.0797,-0.0954,-0.1091,-0.1337,-0.1414,-0.1501,-0.1709,-0.1778,-0.1898,-0.1966,-0.1995,-0.2061,-0.2025,-0.1995,-0.1922,-0.1854,-0.1771,-0.1719,-0.1827,-0.1801,-0.1635,-0.1634,-0.16,-0.1597,-0.1595,-0.1593,-0.1591,0,-0.0738,-0.0793,-0.1059,-0.1153,-0.1273,-0.1438,-0.1543,-0.1733,-0.1801,-0.1952,-0.196,-0.1991,-0.2004,-0.1835,-0.1829,-0.1726,-0.1692,-0.1662,-0.1645,-0.1641,-0.1614,-0.1617,-0.162,-0.1587,-0.1587,-0.1586,-0.1585,0,-0.0626,-0.0714,-0.0835,-0.1024,-0.1172,-0.132,-0.1485,-0.1527,-0.1723,-0.186,-0.1868,-0.1855,-0.1815,-0.1753,-0.1691,-0.1615,-0.1695,-0.1636,-0.164,-0.1623,-0.1625,-0.1601,-0.1607,-0.1577,-0.1578,-0.1579,-0.1579,0,-0.0536,-0.0579,-0.0732,-0.0887,-0.1049,-0.1149,-0.1272,-0.1389,-0.1487,-0.1686,-0.1677,-0.1714,-0.1787,-0.1695,-0.1634,-0.1566,-0.1534,-0.1488,-0.15,-0.1509,-0.1492,-0.1481,-0.1365,0,0,0,0,0,-0.046,-0.048,-0.0598,-0.0755,-0.0896,-0.0986,-0.1208,-0.1336,-0.1539,-0.1505,-0.1594,-0.1557,-0.1514,-0.1535,-0.1433,-0.1569,-0.1519,-0.145,-0.1467,-0.1529,-0.1539,-0.1527,0,0,0,0,0,0,-0.0412,-0.0475,-0.0536,-0.0597,-0.0658,-0.08,-0.0929,-0.1086,-0.1094,-0.1296,-0.1263,-0.1437,-0.1385,-0.1487,-0.137,-0.1381,-0.1364,-0.15,-0.1497,-0.1524,-0.1533,-0.1541,-0.1532,0,0,0,0,0]},{"header":{"parameterUnit":"m.s-1","parameterCategory":2,"la1":30.2991,"la2":30.254,"lo1":-89.0895,"lo2":-89.0444,"dy":0.0017,"dx":0.0017,"nx":28,"ny":28,"refTime":"2024-04-09T09:00:00:Z","depth":"4","parameterNumber":3,"parameterNumberName":"V-component_of_CURRENTS"},"data":[0,0,0,0,0,0,0,0,0,0,0,0,0,0,0,0,0,0,0,0,0,0,0,0,0,0,0,0,0,0,0,0,0,0,0,0,0,0,0,0,0,0,0,0,0,0,0,0,0,0,0,0,0,0,0,0,0,0,-0.0385,-0.0384,0,-0.0306,-0.0305,-0.0304,-0.0235,-0.0234,-0.0234,-0.0233,-0.0119,-0.0117,-0.0115,0,0,0,0,0,0,0,0,0,0,0,0,0,-0.0417,-0.0417,-0.0385,-0.0384,-0.0383,-0.0307,-0.0305,-0.0304,-0.0235,-0.0234,-0.0233,-0.0233,-0.012,-0.0117,-0.0114,0,0,0,0,0,0,0,0,0,0,0,0,0,-0.0376,-0.0417,-0.0385,-0.034,-0.0336,-0.0307,-0.0305,-0.0304,-0.0235,-0.0234,-0.0233,-0.0232,-0.0121,-0.0118,-0.0114,-0.0114,0,0,-0.0103,-0.0102,0,0,0,0,0,0,0,0,-0.0379,-0.0375,-0.0348,-0.0344,-0.0338,-0.028,-0.0275,-0.0239,-0.0236,-0.0272,-0.0233,-0.0232,-0.0171,-0.0164,-0.015,-0.0108,-0.0103,-0.0103,-0.0101,-0.0099,-0.0098,0,0,0,0,0,0,0,-0.0382,-0.0378,-0.0353,-0.0347,-0.0341,-0.0304,-0.0298,-0.0267,-0.0228,-0.0269,-0.0264,-0.0257,-0.0168,-0.0154,-0.0147,-0.0102,-0.0103,-0.01,-0.0098,-0.0096,-0.0016,-0.0016,0,0,0,0,0,0,-0.0398,-0.0381,-0.0356,-0.0351,-0.0357,-0.0305,-0.0297,-0.0299,-0.0228,-0.0217,-0.0258,-0.0254,-0.0161,-0.0151,-0.0143,-0.0101,-0.0099,-0.0096,-0.0094,-0.0016,-0.0016,-0.0016,0,0,0,0,0,0,-0.0399,-0.0397,-0.0359,-0.0364,-0.0357,-0.0306,-0.0308,-0.0298,-0.0282,-0.0221,-0.0208,-0.0252,-0.0159,-0.0148,-0.0111,-0.0097,-0.0094,-0.0091,-0.0016,-0.0016,-0.0016,-0.0041,0,0,0,0,0,0,-0.0401,-0.0398,-0.0411,-0.0366,-0.0357,-0.0351,-0.0309,-0.0297,-0.028,-0.0274,-0.0212,-0.02,-0.0158,-0.0116,-0.0107,-0.0092,-0.0088,-0.0016,-0.0016,-0.0016,-0.004,-0.0042,-0.0043,0,0,0,0,0,-0.0402,-0.0431,-0.0412,-0.0409,-0.0375,-0.0352,-0.0345,-0.0303,-0.0281,-0.0283,-0.0231,-0.0202,-0.0109,-0.0114,-0.0103,-0.0087,-0.0016,-0.0016,-0.0016,-0.0039,-0.0041,-0.0043,0,0,0,0,0,0,-0.0458,-0.0426,-0.0404,-0.0423,-0.0391,-0.0341,-0.0346,-0.0312,-0.0274,-0.0268,-0.0203,-0.0189,-0.0151,-0.0123,-0.0129,-0.0065,-0.0057,-0.0055,-0.0079,-0.008,-0.0082,-0.0072,-0.0085,0,0,0,0,0,-0.0475,-0.0488,-0.0442,-0.046,-0.0447,-0.0396,-0.0384,-0.0353,-0.0311,-0.0294,-0.0244,-0.0193,-0.0144,-0.0117,-0.008,-0.0048,-0.0008,-0.0031,-0.0032,-0.0034,-0.0019,0.0056,0.0063,-0.0016,-0.0016,-0.0016,0,0,-0.0506,-0.0488,-0.0498,-0.0472,-0.0446,-0.0429,-0.0386,-0.0376,-0.0349,-0.0289,-0.0248,-0.0203,-0.014,-0.0098,-0.0078,-0.0069,0.0003,-0.0034,-0.0035,-0.0019,0.0057,0.0065,0.0072,-0.0016,-0.0016,-0.0016,0,0,-0.0567,-0.0554,-0.0576,-0.0548,-0.0512,-0.0473,-0.0472,-0.0419,-0.0384,-0.0345,-0.0285,-0.0227,-0.0173,-0.0104,-0.0066,-0.0056,-0.0013,-0.0057,-0.0044,0.0028,0.0035,0.0043,0.0077,0.0088,-0.0049,-0.0049,-0.0049,0,-0.0605,-0.0614,-0.058,-0.0578,-0.0554,-0.0493,-0.0489,-0.0447,-0.0386,-0.0346,-0.034,-0.0211,-0.0166,-0.0071,-0.0064,-0.0055,-0.0025,-0.0042,0.0028,0.0036,0.0044,0.0078,0.009,-0.0051,-0.0051,-0.005,-0.005,0,-0.0667,-0.0661,-0.0673,-0.0641,-0.0613,-0.0607,-0.0533,-0.0498,-0.0449,-0.0389,-0.0302,-0.0227,-0.0141,-0.0121,-0.0087,-0.0001,-0.0004,0.0011,0.0034,0.0051,0.0084,0.0098,-0.0052,-0.0052,-0.0052,-0.0051,0,0,-0.0779,-0.0727,-0.0731,-0.0704,-0.064,-0.0621,-0.0571,-0.0496,-0.0447,-0.0376,-0.03,-0.0202,-0.0148,-0.01,-0.0041,0.0028,0.01,0.004,0.0045,0.0077,0.0233,0.0189,0.02,0.0126,0.0129,0.0131,0.0224,0,-0.0833,-0.0842,-0.0792,-0.0773,-0.0756,-0.0667,-0.0621,-0.054,-0.046,-0.0376,-0.0262,-0.0182,-0.0142,-0.0098,-0.0018,0.0079,0.0138,0.0072,0.0211,0.0215,0.0178,0.0215,0.014,0.0234,0.0238,0.024,0.0241,0,-0.0902,-0.0888,-0.0895,-0.0805,-0.0791,-0.0769,-0.0663,-0.0611,-0.0469,-0.0404,-0.0286,-0.0198,-0.0061,-0.005,0.014,0.0094,0.0159,0.0224,0.0229,0.0213,0.0197,0.0222,0.0266,0.0264,0.0262,0.0261,0.0259,0,-0.0988,-0.0947,-0.0952,-0.0929,-0.0837,-0.081,-0.0754,-0.0628,-0.0567,-0.0417,-0.0353,-0.0184,-0.0096,0.0032,0.0175,0.0161,0.0361,0.0357,0.0377,0.0373,0.0395,0.0387,0.0475,0.0474,0.0474,0.0474,0.0474,0,-0.1044,-0.1039,-0.0997,-0.0994,-0.0978,-0.0884,-0.0837,-0.0748,-0.0621,-0.0543,-0.0378,-0.0279,-0.0071,0.0074,0.0184,0.0327,0.0373,0.0394,0.0409,0.0376,0.0364,0.0403,0.0393,0.0477,0.0477,0.0476,0.0475,0,-0.1111,-0.1095,-0.1091,-0.1033,-0.1019,-0.1006,-0.0907,-0.086,-0.073,-0.0622,-0.0574,-0.0338,-0.0146,0.0045,0.026,0.033,0.0471,0.0498,0.0438,0.0445,0.0425,0.0413,0.0536,0.0536,0.0535,0.0535,0.0535,0,-0.113,-0.1151,-0.1148,-0.1159,-0.1135,-0.1102,-0.1076,-0.0943,-0.088,-0.0657,-0.0609,-0.0385,-0.0229,0.0058,0.0243,0.0455,0.0468,0.0529,0.0495,0.0436,0.0439,0.0428,0.0416,0.0534,0.0534,0.0534,0.0534,0,-0.1157,-0.1188,-0.1189,-0.1235,-0.1234,-0.1213,-0.1157,-0.1117,-0.0949,-0.084,-0.0618,-0.0415,-0.02,0.0038,0.0208,0.0355,0.0494,0.0525,0.0526,0.0495,0.0435,0.0436,0.0425,0.0532,0.0533,0.0533,0.0533,0,-0.1177,-0.1202,-0.1243,-0.1265,-0.1296,-0.1292,-0.1255,-0.1142,-0.1051,-0.0797,-0.0735,-0.0447,-0.0265,-0.0014,0.0145,0.0292,0.0312,0.0337,0.0348,0.0352,0.0268,0.0164,0.0206,0,0,0,0,0,-0.1168,-0.1204,-0.1253,-0.1278,-0.1325,-0.1329,-0.1284,-0.1229,-0.1082,-0.0946,-0.0826,-0.0617,-0.03,-0.0135,-0.0002,0.0092,0.0301,0.0248,0.0324,0.0525,0.0527,0.0456,0,0,0,0,0,0,-0.116,-0.1219,-0.125,-0.1294,-0.1316,-0.134,-0.1316,-0.1226,-0.1124,-0.0959,-0.0789,-0.0621,-0.0325,-0.0387,-0.0009,0.0045,0.0102,0.0421,0.0423,0.0524,0.0526,0.0527,0.0455,0,0,0,0,0]}]]